This is the latest recevied weather packets stored in our database for station/object KE0LFX. If no packets are shown the sender has not sent any weather packets the latest 10 day(s).
| Time | Temp. | Humidity | Pressure | Rain* | Wind** | Luminosity | Snow |
|---|---|---|---|---|---|---|---|
| 1777816621 | 12.22° C | 58% | 1014.2 hPa | 0 mm | - | 95 W/m² | - |
| 1777816318 | 12.22° C | 57% | 1014.1 hPa | 0 mm | - | 111 W/m² | - |
| 1777816015 | 12.22° C | 58% | 1014.1 hPa | 0 mm | - | 110 W/m² | - |
| 1777815713 | 12.22° C | 58% | 1014.2 hPa | 0 mm | - | 73 W/m² | - |
| 1777815410 | 12.22° C | 58% | 1014.3 hPa | 0 mm | - | 37 W/m² | - |
| 1777815107 | 12.22° C | 56% | 1014.2 hPa | 0 mm | - | 79 W/m² | - |
| 1777814803 | 12.22° C | 56% | 1014.3 hPa | 0 mm | - | 97 W/m² | - |
| 1777814500 | 12.22° C | 57% | 1014.3 hPa | 0 mm | - | 36 W/m² | - |
| 1777814197 | 11.67° C | 57% | 1014.4 hPa | 0 mm | - | 67 W/m² | - |
| 1777813894 | 11.67° C | 58% | 1014.4 hPa | 0 mm | - | 45 W/m² | - |
| 1777813592 | 11.67° C | 59% | 1014.7 hPa | 0 mm | - | 42 W/m² | - |
| 1777813289 | 11.67° C | 60% | 1014.6 hPa | 0 mm | - | 56 W/m² | - |
| 1777812986 | 11.11° C | 60% | 1015.1 hPa | 0 mm | - | 26 W/m² | - |
| 1777812684 | 11.67° C | 60% | 1015 hPa | 0 mm | - | 24 W/m² | - |
| 1777812380 | 11.11° C | 60% | 1015.2 hPa | 0 mm | - | 23 W/m² | - |
| 1777812079 | 11.11° C | 61% | 1015.1 hPa | 0 mm | - | 20 W/m² | - |
| 1777811777 | 11.11° C | 60% | 1015.2 hPa | 0 mm | - | 29 W/m² | - |
| 1777811473 | 11.11° C | 60% | 1015.4 hPa | 0 mm | - | 9 W/m² | - |
| 1777811169 | 11.11° C | 60% | 1015.2 hPa | 0 mm | - | 14 W/m² | - |
| 1777810868 | 11.67° C | 60% | 1015.4 hPa | 0 mm | - | 11 W/m² | - |
| 1777810563 | 11.11° C | 59% | 1015.9 hPa | 0 mm | - | 7 W/m² | - |
| 1777810261 | 11.11° C | 62% | 1015.6 hPa | 0 mm | - | 5 W/m² | - |
| 1777809956 | 11.11° C | 62% | 1015.9 hPa | 0 mm | - | 4 W/m² | - |
| 1777809655 | 11.11° C | 62% | 1015.7 hPa | 0 mm | - | 2 W/m² | - |
| 1777809352 | 11.11° C | 60% | 1016.4 hPa | 0 mm | - | 0 W/m² | - |
* Rain latest hour (hover to see other rain measurements)
** Current wind speed in m/s (hover to see current wind gust speed)